Toledo Metcalf, OH

6:34 AM EDT on March 30, 2017 (GMT -0400)
Metcalf

Weather History for KTDZ - January, 2014

Change the Weather History Date:

Tuesday, January 7, 2014

  Actual Average (KTOL) Record (KTOL)
Temperature  
Mean Temperature -7 °F -  
Max Temperature 0 °F 31 °F 66 °F (2008)
Min Temperature -14 °F 15 °F -14 °F (2014)
Degree Days  
Heating Degree Days 72    
Moisture  
Dew Point -14 °F    
Average Humidity 69    
Maximum Humidity 72    
Minimum Humidity 65    
Precipitation  
Precipitation 0.00 in - - ()
Sea Level Pressure  
Sea Level Pressure 30.33 in    
Wind  
Wind Speed 16 mph (SW)    
Max Wind Speed 22 mph    
Max Gust Speed 32 mph    
Visibility 8 miles    
Events      
Averages and records for this station are not official NWS values.
T = Trace of Precipitation, MM = Missing Value Source: NWS Daily Summary

Daily Weather History Graph

Daily Weather History Graph

Search for Another Location

Airport or City:

Trip Planner

Search our weather history database for the weather conditions in past years. The results will help you decide how hot, cold, wet, or windy it might be!

Date:

Astronomy

Jan. 07, 2014 Rise Set
Actual Time 8:00 AM EST 5:20 PM EST
Civil Twilight 7:29 AM EST 5:51 PM EST
Nautical Twilight 6:54 AM EST 6:25 PM EST
Astronomical Twilight 6:21 AM EST 6:59 PM EST
Moon 11:42 AM EST (1/7) No Moon Set
Length of Visible Light 10h 21m
Length of Day
9h 19m
Waxing Crescent, 45% of the Moon is Illuminated
Jan 7
Waxing Crescent
Jan 7
First Quarter
Jan 15
Full
Jan 24
Last Quarter
Jan 30
New

Hourly Weather History & Observations

Time (EST) Temp. Windchill Dew Point Humidity Pressure Visibility Wind Dir Wind Speed Gust Speed Precip Events Conditions
12:53 AM -13.0 °F -36.8 °F -20.9 °F 68% 30.25 in 10.0 mi SW 16.1 mph 24.2 mph N/A   Clear
1:53 AM -13.0 °F -38.2 °F -20.9 °F 68% 30.25 in 10.0 mi SW 18.4 mph 25.3 mph N/A   Clear
2:53 AM -13.0 °F -36.0 °F -20.9 °F 68% 30.28 in 10.0 mi SW 15.0 mph - N/A   Clear
3:53 AM -14.1 °F -38.9 °F -20.9 °F 71% 30.27 in 10.0 mi SW 17.3 mph - N/A   Clear
4:53 AM -13.0 °F -37.5 °F -20.9 °F 68% 30.27 in 10.0 mi WSW 17.3 mph 25.3 mph N/A   Clear
5:53 AM -13.0 °F -36.8 °F -20.0 °F 71% 30.29 in 10.0 mi SW 16.1 mph 24.2 mph N/A   Clear
6:53 AM -11.9 °F -34.6 °F -20.0 °F 67% 30.31 in 10.0 mi SW 15.0 mph - N/A   Clear
7:53 AM -11.9 °F -36.8 °F -18.9 °F 71% 30.32 in 10.0 mi SW 18.4 mph - N/A   Clear
8:53 AM -11.0 °F -34.9 °F -18.0 °F 71% 30.33 in 6.0 mi SW 17.3 mph 24.2 mph N/A   Haze
9:28 AM -9.4 °F -34.1 °F -16.6 °F 71% 30.28 in 4.0 mi SW 19.6 mph 25.3 mph N/A   Haze
9:53 AM -9.0 °F -33.0 °F -17.0 °F 68% 30.36 in 9.0 mi SW 18.4 mph - N/A   Clear
10:53 AM -7.1 °F -31.6 °F -15.0 °F 68% 30.39 in 2.0 mi SW 20.7 mph 29.9 mph N/A   Haze
11:11 AM -7.6 °F -32.9 °F -14.8 °F 71% 30.32 in 5.0 mi WSW 21.9 mph 32.2 mph 0.00 in   Haze
11:53 AM -6.0 °F -30.2 °F -15.0 °F 65% 30.37 in 8.0 mi SW 20.7 mph 27.6 mph 0.00 in   Clear
12:53 PM -5.1 °F -28.4 °F -14.1 °F 65% 30.34 in 9.0 mi SW 19.6 mph - N/A   Clear
1:53 PM -4.0 °F -27.6 °F -11.9 °F 69% 30.34 in 2.5 mi SW 20.7 mph 24.2 mph N/A   Haze
2:17 PM -4.0 °F -27.0 °F -11.2 °F 71% 30.28 in 5.0 mi SW 19.6 mph 28.8 mph N/A   Haze
2:53 PM -2.9 °F -23.1 °F -11.0 °F 68% 30.35 in 10.0 mi SW 15.0 mph 25.3 mph N/A   Clear
3:53 PM -0.9 °F -21.9 °F -9.9 °F 66% 30.35 in 10.0 mi SW 17.3 mph 24.2 mph N/A   Clear
4:53 PM -0.0 °F -20.1 °F -9.0 °F 66% 30.35 in 10.0 mi SW 16.1 mph - N/A   Clear
5:53 PM -0.0 °F -19.4 °F -9.0 °F 66% 30.35 in 10.0 mi SW 15.0 mph 21.9 mph N/A   Clear
6:53 PM -0.0 °F -15.3 °F -9.0 °F 66% 30.37 in 10.0 mi SW 9.2 mph - N/A   Clear
7:53 PM -2.0 °F -13.9 °F -9.0 °F 72% 30.38 in 10.0 mi SW 5.8 mph - N/A   Clear
8:53 PM -0.9 °F -14.1 °F -9.0 °F 69% 30.39 in 10.0 mi SW 6.9 mph - N/A   Clear
9:53 PM -0.0 °F -13.0 °F -7.1 °F 72% 30.40 in 10.0 mi SW 6.9 mph - N/A   Clear
10:53 PM -0.0 °F -14.2 °F -7.1 °F 72% 30.40 in 10.0 mi SSW 8.1 mph - N/A   Clear
11:53 PM -0.9 °F -11.0 °F -8.0 °F 72% 30.41 in 10.0 mi SW 4.6 mph - N/A   Clear